Location: Logan
(41.7360°N, 111.8340°W)
Time: 00:43:56
(UTC-06:00)

Daily predictions for brighter satellites

Satellite Brightness Start Highest point End
(mag) Time Altitude Azimuth Time Altitude Azimuth Time Altitude Azimuth
ATLAS 2AS CENTAUR R/B 4.4 02:42:05 32° NNE 02:42:05 32° NNE 02:46:02 10° NNE
SL-16 R/B 4.3 03:23:44 27° NNE 03:23:44 27° NNE 03:26:44 10° N
Resurs 1-4 Rocket 4.5 03:23:32 10° NE 03:25:18 19° NE 03:25:18 19° NE
Cosmos 2344 3.7 03:57:26 74° ENE 03:57:26 74° ENE 04:05:22 10° NE
NOSS 3-4 (A) 4.1 04:09:55 55° ENE 04:09:55 55° ENE 04:15:10 10° NE
NOSS 3-4 (C) 4.1 04:10:00 55° ENE 04:10:00 55° ENE 04:15:16 10° NE
Lacrosse 5 rocket 4.1 04:21:06 16° NNE 04:21:06 16° NNE 04:22:26 10° NNE
ATLAS 5 CENTAUR R/B 3.1 04:30:34 45° SE 04:30:34 45° SE 04:34:58 10° SE
ATLAS 2AS CENTAUR R/B 4.3 04:29:31 26° NW 04:30:15 26° NNW 04:36:49 10° NNE
Cosmos 1727 Rocket 4.0 04:40:04 67° SSE 04:40:48 76° E 04:47:08 10° N
CZ-2D R/B 3.2 04:44:28 10° N 04:47:31 33° NNW 04:47:31 33° NNW
SL-16 R/B 2.9 04:46:37 10° NNW 04:52:12 53° ENE 04:57:43 10° SE
Lacrosse 5 2.3 04:54:26 54° N 04:54:26 54° N 04:58:38 10° NE
Cosmos 1025 Rocket 3.9 04:56:18 46° NNE 04:56:18 46° NNE 04:59:25 10° NNE
NOSS 3-2 (A) 4.0 04:56:36 57° SW 04:56:36 57° SW 05:04:17 10° SSE
Cosmos 2227 Rocket 2.3 05:03:30 60° NW 05:03:30 60° NW 05:08:49 10° NNE
IRS-1C Rocket 4.2 04:58:45 10° NNE 05:04:04 75° ESE 05:05:27 50° S
SL-16 R/B 4.3 05:08:50 16° NW 05:08:50 16° NW 05:10:14 10° NNW
Resurs 1-4 Rocket 3.3 05:03:14 10° N 05:06:22 29° NNW 05:06:22 29° NNW
Cosmos 1153 Rocket 4.4 05:04:00 10° N 05:10:21 75° W 05:16:43 10° S
EXPRESS MD2 4.1 05:10:35 44° NE 05:10:35 44° NE 05:15:00 10° ESE
Meteor 1-13 Rocket 4.3 05:10:36 59° WNW 05:10:36 59° WNW 05:16:14 10° N
Cosmos 1605 Rocket 4.3 05:05:34 10° NNW 05:10:31 46° WNW 05:10:31 46° WNW
Cosmos 2297 Rocket 2.0 05:11:35 66° WSW 05:12:08 71° WNW 05:17:48 10° NNE
Cosmos 1346 Rocket 3.0 05:15:13 67° NNE 05:15:13 67° NNE 05:18:46 10° NNE
USA 215 3.5 05:10:18 10° SSE 05:16:19 44° SW 05:16:19 44° SW
Cosmos 1606 Rocket 3.8 05:12:17 10° N 05:15:51 58° NNW 05:15:51 58° NNW
Cosmos 1339 Rocket 4.4 05:15:37 44° SW 05:17:37 67° W 05:24:01 10° N
RESURS DK-1 3.3 05:20:47 37° NNW 05:20:47 37° NNW 05:23:43 10° NNE
Cosmos 2098 Rocket 4.5 05:17:46 10° N 05:21:36 40° E 05:26:23 10° SSE
Okean O Rocket 1.5 05:17:16 10° N 05:21:34 71° WNW 05:21:34 71° WNW
ADEOS Rocket 3.5 05:15:35 10° NNE 05:22:40 69° ESE 05:28:58 10° S
Cosmos 1898 Rocket 3.6 05:20:20 30° S 05:22:59 74° ESE 05:28:17 10° NNE
DELTA 2 R/B (1) 3.7 05:25:15 47° SW 05:26:33 61° SSE 05:32:02 10° E
CENTAUR R/B 3.4 05:18:52 10° NNW 05:26:39 68° NE 05:34:56 10° SE
Cosmos 1726 Rocket 3.4 05:22:29 10° N 05:26:53 77° W 05:28:25 39° S
PSLV R/B 4.4 05:28:24 10° N 05:31:44 43° NW 05:31:44 43° NW
Cosmos 1937 Rocket 3.8 05:29:25 15° S 05:33:41 66° ESE 05:38:56 10° NNE
CZ-4B DEB 4.1 05:29:49 10° NNE 05:35:19 80° WNW 05:39:25 19° SSW
NOSS 3-2 (C) 4.3 05:28:37 10° NW 05:35:37 41° WSW 05:43:01 10° S
Cosmos 1892 Rocket 3.6 05:39:22 43° SW 05:40:33 60° W 05:45:00 10° N
PSLV R/B 3.6 05:39:05 10° NNE 05:43:26 79° ESE 05:47:42 10° S
Cosmos 2082 4.5 05:44:22 30° WNW 05:45:15 31° NW 05:50:13 10° N
NOSS 2-2 (C) 4.1 05:45:43 19° SSW 05:48:32 56° ESE 05:53:07 10° NE
NOSS 2-2 (E) 3.9 05:47:11 21° SSW 05:49:50 65° ESE 05:54:36 10° NE
Meteor 1-31 Rocket 4.2 05:47:44 10° NNE 05:51:25 39° E 05:55:06 10° SSE
Cosmos 2228 2.9 05:47:03 10° N 05:51:27 77° W 05:55:48 10° S
Cosmos 2100 Rocket 4.0 05:45:26 10° NNW 05:51:32 57° W 05:57:40 10° SSW
PAYLOAD B 4.4 05:46:30 10° N 05:51:49 51° WNW 05:55:21 21° SW
Cosmos 1802 Rocket 3.9 05:48:16 10° NNW 05:54:23 68° W 06:00:27 10° S
Cosmos 2061 Rocket 4.0 05:48:29 10° NNW 05:54:41 60° W 06:00:56 10° S
Tiangong 1 1.0 05:56:05 52° WNW 05:56:40 70° N 05:59:41 10° E
Cosmos 1515 4.1 05:55:17 10° S 05:59:03 63° E 06:02:50 10° NNE
Cosmos 1666 4.2 05:55:51 10° NNW 05:57:38 22° NW 05:57:38 22° NW
Lacrosse 5 rocket 4.0 05:57:47 10° NNW 05:59:23 12° N 06:00:58 10° NNE
Meteor 1-15 Rocket 4.3 05:55:27 10° NNW 06:00:50 51° W 06:06:15 10° SSW
ADEOS II 2.0 05:56:25 10° NNE 06:01:42 83° WNW 06:06:58 10° SSW
ASTRO F (AKARI) 4.3 05:58:58 10° S 06:02:03 51° W 06:05:15 10° NNW
Cosmos 1812 Rocket 4.3 05:58:01 10° N 06:02:25 57° E 06:06:49 10° SSE
Cosmos 1725 Rocket 4.1 05:56:34 10° N 06:02:54 80° E 06:09:09 10° S
NOSS 8 (A) 4.4 06:05:11 31° WSW 06:06:33 61° NW 06:10:03 10° NNE
CZ-4B R/B 4.0 06:05:37 10° N 06:09:29 30° WNW 06:11:26 22° WSW
Cosmos 1340 4.1 06:06:35 10° SSE 06:10:08 40° E 06:13:43 10° NNE
ATLAS 5 CENTAUR R/B 3.6 06:12:19 19° WSW 06:12:43 19° WSW 06:17:05 10° SSW
CZ-4B R/B 3.8 06:08:19 10° N 06:13:11 35° WNW 06:17:28 13° SW
Feng Yun 1-1 Rocket 4.3 06:14:24 10° N 06:20:03 70° WNW 06:25:49 10° SSW
Meteor PRIRODA 3.7 06:16:33 10° N 06:20:13 54° WNW 06:23:49 10° SSW
Cosmos 2058 Rocket 4.1 06:19:38 10° NW 06:23:09 24° W 06:26:39 10° SW
Cosmos 2227 4.2 06:17:38 10° SSW 06:23:23 74° WNW 06:29:10 10° NNE
Cosmos 2016 Rocket 4.2 06:18:04 10° NNW 06:24:06 47° W 06:30:03 10° SSW
MOS 1 Rocket 3.4 06:20:32 10° N 06:25:23 77° WNW 06:30:31 10° SSW
Aureole 2 Rocket 3.5 06:24:24 13° WNW 06:26:21 20° W 06:28:43 10° SSW
SeaSat 1 4.5 06:23:08 10° ESE 06:27:22 30° NE 06:31:38 10° N
Okean-O 3.0 06:24:37 10° N 06:28:49 43° WNW 06:33:01 10° SW
Meteor 2-17 Rocket 4.4 06:23:34 10° N 06:29:44 83° W 06:35:53 10° S
USA 129 1.9 06:31:11 10° S 06:32:55 33° WSW 06:34:30 10° NNW
Cosmos 990 Rocket 4.2 06:28:43 10° SW 06:33:48 49° WNW 06:38:54 10° N
COSMO-SKYMED 1 3.0 06:30:23 10° SSE 06:34:41 69° ENE 06:39:01 10° N
COBE Rocket 3.8 06:30:12 10° N 06:34:54 61° WNW 06:39:30 10° SSW
SL-16 R/B 3.3 06:31:36 10° NW 06:35:52 22° W 06:40:08 10° SSW
Lacrosse 5 3.6 06:33:45 10° WNW 06:37:26 20° NNW 06:41:07 10° NNE
Thor Agena Rocket 4.5 06:33:07 10° SSW 06:37:30 26° W 06:41:56 10° NW
Cosmos 1825 Rocket 4.1 06:33:14 10° S 06:37:35 64° E 06:41:55 10° NNE
Radarsat Rocket 4.3 06:31:02 10° NNE 06:37:45 78° ESE 06:43:47 10° SSW
Ariane Rocket 3.5 06:34:51 10° NNE 06:39:57 65° ESE 06:45:00 10° S
Cosmos 1269 Rocket 4.3 06:35:01 10° NNW 06:40:19 76° ENE 06:45:35 10° SSE
Cosmos 2123 Rocket 4.2 06:37:43 10° SSW 06:43:39 48° WNW 06:49:38 10° N
CZ-4 R/B 4.5 06:42:50 10° NE 06:45:54 21° E 06:48:59 10° SE
Cosmos 1066 Rocket 4.2 06:41:32 10° SSW 06:47:10 72° W 06:52:59 10° N
Cosmos 2227 Rocket 4.1 06:46:54 10° WNW 06:48:29 11° NW 06:50:04 10° NNW
Cosmos 1174 4.1 06:46:46 10° NW 06:49:29 29° WSW 06:52:28 10° S
Cosmos 1626 Rocket 4.4 06:47:27 10° SW 06:51:15 28° WNW 06:55:02 10° NNW
Intercosmos 25 Rocket 3.7 06:49:39 10° NNW 06:53:16 57° W 06:58:40 10° S
Cosmos 2297 Rocket 4.1 06:54:49 10° WNW 06:57:15 13° NW 06:59:42 10° NNW
OAO 2 Rocket 4.4 06:55:05 10° WSW 07:00:01 40° S 07:04:58 10° ESE
